CW1309 Weather Reports


Display with metric or nautical units.
time (UTC)temp
F
wind
direction
speed
MPH
gust
MPH
rain 1hr
in
rain 24hr
in
rain mn
in
humidity
%
barometer
mb
20260831001509 95 153 2.0 10.0 0.00 0.00 0.00 64 1012.7
20260831000007 96 129 2.0 10.0 0.00 0.00 0.00 64 1012.7
20260830234510 96 126 0.0 4.0 0.00 0.00 0.00 65 1012.7
20260830233005 98 142 1.0 9.0 0.00 0.00 0.00 61 1012.8
20260830231504 100 127 3.0 8.0 0.00 0.00 0.00 57 1012.8
20260830230003 100 104 1.0 4.0 0.00 0.00 0.00 57 1012.6
20260830224502 99 169 1.0 10.0 0.00 0.00 0.00 58 1012.7
20260830223108 100 119 0.0 6.0 0.00 0.00 0.00 57 1012.8
20260830221609 99 104 0.0 7.0 0.00 0.00 0.00 58 1012.8
20260830220058 99 94 2.0 10.0 0.00 0.00 0.00 58 1012.8
20260830214601 99 148 4.0 9.0 0.00 0.00 0.00 59 1013.0
20260830213052 99 132 3.0 8.0 0.00 0.00 0.00 60 1013.3
20260830211555 99 166 2.0 7.0 0.00 0.00 0.00 60 1013.5
20260830210048 99 157 2.0 9.0 0.00 0.00 0.00 61 1013.8
20260830204545 98 171 2.0 7.0 0.00 0.00 0.00 61 1014.2
20260830203042 98 215 3.0 7.0 0.00 0.00 0.00 63 1014.4
20260830201542 98 169 3.0 8.0 0.00 0.00 0.00 63 1014.7
20260830200034 96 148 4.0 10.0 0.00 0.00 0.00 64 1014.9
20260830194530 96 129 1.0 6.0 0.00 0.00 0.00 65 1015.1
20260830193027 96 126 4.0 8.0 0.00 0.00 0.00 66 1015.4
20260830191524 96 161 3.0 9.0 0.00 0.00 0.00 66 1015.7
20260830184513 95 165 4.0 11.0 0.00 0.00 0.00 68 1016.3
20260830183010 94 93 0.0 9.0 0.00 0.00 0.00 68 1016.5
20260830181503 94 130 0.0 8.0 0.00 0.00 0.00 69 1016.9
20260830180107 94 105 1.0 7.0 0.00 0.00 0.00 70 1016.9
20260830174612 93 159 2.0 8.0 0.00 0.00 0.00 72 1017.3
20260830173057 92 138 2.0 8.0 0.00 0.00 0.00 73 1017.4
20260830171549 91 134 2.0 8.0 0.00 0.00 0.00 76 1017.7
20260830170045 89 221 4.0 9.0 0.00 0.00 0.00 77 1017.8
20260830164546 89 195 2.0 7.0 0.00 0.00 0.00 78 1017.9
20260830163041 89 202 3.0 8.0 0.00 0.00 0.00 79 1018.1
20260830161540 87 206 4.0 8.0 0.00 0.00 0.00 83 1018.2
20260830160037 87 163 2.0 8.0 0.00 0.00 0.00 84 1018.2
20260830154533 85 204 2.0 8.0 0.00 0.00 0.00 88 1018.1
20260830153029 84 180 2.0 9.0 0.00 0.00 0.00 90 1018.1
20260830151527 83 191 1.0 3.0 0.00 0.00 0.00 93 1018.0
20260830150030 82 209 4.0 8.0 0.00 0.00 0.00 93 1017.9
20260830144530 82 179 3.0 7.0 0.00 0.00 0.00 94 1018.1
20260830143023 82 177 1.0 5.0 0.00 0.00 0.00 95 1018.1
20260830141536 81 96 0.0 1.0 0.00 0.00 0.00 97 1018.0
20260830140021 79 96 0.0 2.0 0.00 0.00 0.00 97 1017.9
20260830134521 78 96 0.0 3.0 0.00 0.00 0.00 99 1017.8
20260830133021 77 96 0.0 3.0 0.00 0.00 0.00 99 1017.8
20260830131522 76 96 1.0 4.0 0.00 0.00 0.00 100 1017.8
20260830130022 75 163 0.0 3.0 0.00 0.00 0.00 100 1017.7
20260830123023 75 166 0.0 3.0 0.00 0.00 0.00 100 1017.4
20260830121514 75 166 0.0 3.0 0.00 0.00 0.00 100 1017.3
20260830120012 75 166 0.0 1.0 0.00 0.00 0.00 100 1017.2
20260830114517 75 166 0.0 0.0 0.00 0.00 0.00 99 1017.1
20260830113011 75 166 0.0 1.0 0.00 0.00 0.00 99 1017.0
20260830111510 75 166 0.0 1.0 0.00 0.00 0.00 99 1016.8
20260830110008 76 166 0.0 1.0 0.00 0.00 0.00 98 1016.9
20260830104508 76 167 0.0 1.0 0.00 0.00 0.00 98 1016.7
20260830103006 76 166 0.0 0.0 0.00 0.00 0.00 98 1016.7
20260830101505 76 166 0.0 1.0 0.00 0.00 0.00 98 1016.8
20260830100004 76 167 0.0 2.0 0.00 0.00 0.00 97 1016.7
20260830094508 76 166 0.0 3.0 0.00 0.00 0.00 96 1016.5
20260830093002 77 166 0.0 2.0 0.00 0.00 0.00 96 1016.6
20260830091503 77 166 0.0 2.0 0.00 0.00 0.00 95 1016.6
20260830090109 77 166 0.0 2.0 0.00 0.00 0.00 95 1016.5
20260830084557 78 166 0.0 2.0 0.00 0.00 0.00 95 1016.7
20260830083127 78 165 0.0 3.0 0.00 0.00 0.00 94 1016.7
20260830081554 78 166 0.0 3.0 0.00 0.00 0.00 94 1016.7
20260830080053 78 164 0.0 2.0 0.00 0.00 0.00 93 1016.9
20260830074552 78 163 0.0 2.0 0.00 0.00 0.00 92 1017.0
20260830073107 79 163 0.0 2.0 0.00 0.00 0.00 92 1017.1
20260830071550 79 163 0.0 2.0 0.00 0.00 0.00 91 1017.1
20260830070047 79 163 0.0 2.0 0.00 0.00 0.00 90 1017.2
20260830064546 80 163 0.0 2.0 0.00 0.00 0.00 89 1017.2
20260830063044 80 162 0.0 3.0 0.00 0.00 0.00 88 1017.2
20260830061544 81 178 0.0 4.0 0.00 0.00 0.00 88 1017.2
20260830060040 81 159 1.0 6.0 0.00 0.00 0.00 87 1017.1
20260830054538 82 148 1.0 7.0 0.00 0.00 0.00 86 1017.0
20260830053136 82 146 3.0 7.0 0.00 0.00 0.00 85 1016.9
20260830051533 82 175 0.0 6.0 0.00 0.00 0.00 85 1016.8
20260830050033 83 155 1.0 5.0 0.00 0.00 0.00 84 1016.9
20260830044530 83 171 2.0 8.0 0.00 0.00 0.00 83 1017.0
20260830043034 84 167 1.0 8.0 0.00 0.00 0.00 82 1016.9
20260830041537 84 175 0.0 4.0 0.00 0.00 0.00 82 1016.8
20260830040037 85 155 0.0 7.0 0.00 0.00 0.00 81 1016.9
20260830034528 85 158 1.0 5.0 0.00 0.00 0.00 79 1016.8
20260830033034 86 138 2.0 6.0 0.00 0.00 0.00 79 1016.7
20260830031526 87 155 1.0 7.0 0.00 0.00 0.00 78 1016.4
20260830030035 87 155 1.0 7.0 0.00 0.00 0.00 78 1016.4
20260830024529 88 163 3.0 9.0 0.00 0.00 0.00 77 1016.1
20260830023052 89 144 2.0 8.0 0.00 0.00 0.00 76 1015.9
20260830021524 89 132 0.0 8.0 0.00 0.00 0.00 74 1015.6
20260830020023 90 132 4.0 15.0 0.00 0.00 0.00 73 1015.1
20260830014536 91 138 1.0 7.0 0.00 0.00 0.00 72 1014.9
20260830013025 91 147 2.0 9.0 0.00 0.00 0.00 71 1014.5
20260830011531 92 155 0.0 2.0 0.00 0.00 0.00 70 1014.3
20260830010028 93 150 0.0 3.0 0.00 0.00 0.00 69 1014.1
20260830004529 94 121 0.0 3.0 0.00 0.00 0.00 68 1014.3
20260830003023 95 122 1.0 7.0 0.00 0.00 0.00 67 1014.2